[Show "Revision History"] [Show "General Page Infos"] [Show "Page hits and edits"]

Revision History

Showing page edit history entries from 1 to 53 out of 53 entries total. (5 | 10 | 25 | 50 | 100 | 200 items per page)

# Date Size Editor Comment Action
53 2010-01-25 20:34:23 21473 to previous MarkSlee   view
52 2010-01-19 07:33:49 20821 to previous JustinErenkrantz   view
51 2010-01-19 01:58:58 20809 to previous HyrumWright Add Subversion section view
50 2010-01-19 01:40:24 19231 to previous CraigRussell   view
49 2010-01-18 16:33:42 19215 to previous NoelBergman Close the reporting period view
48 2010-01-18 14:28:22 19239 to previous KevanMiller   view
47 2010-01-18 14:26:29 19226 to previous NeerajJoshi   view
46 2010-01-18 08:34:28 18610 to previous TillWestmann   view
45 2010-01-18 01:43:45 18053 to previous JukkaZitting sign off the Chemistry and UIMA reports view
44 2010-01-16 22:18:30 18025 to previous MichaelRyan   view
43 2010-01-16 21:02:21 17032 to previous CraigRussell   view
42 2010-01-16 20:56:49 17000 to previous CraigRussell JSPWiki report view
41 2010-01-16 01:54:21 16131 to previous ivysummer   view
40 2010-01-15 22:21:34 15302 to previous Kalle Korhonen   view
39 2010-01-14 10:34:08 13976 to previous CarstenZiegeler   view
38 2010-01-13 23:46:53 13965 to previous rrusin   view
37 2010-01-13 23:11:41 13135 to previous BertrandDelacretaz Sign off ACE report view
36 2010-01-13 23:01:26 13123 to previous MarcelOffermans   view
35 2010-01-13 20:01:16 11528 to previous ShantiSubramanyam   view
34 2010-01-13 19:58:51 11497 to previous ShantiSubramanyam   view
33 2010-01-13 12:07:35 10333 to previous MarshallSchor   view
32 2010-01-13 12:01:12 10097 to previous JeanFredericClere libcloud reviewed view
31 2010-01-13 10:52:32 10082 to previous TommasoTeofili   view
30 2010-01-13 09:01:52 10234 to previous TommasoTeofili   view
29 2010-01-13 08:55:15 10193 to previous TommasoTeofili   view
28 2010-01-13 07:31:35 10082 to previous BertrandDelacretaz sign off clerezza report - the right one this time ;-) view
27 2010-01-13 07:30:14 10081 to previous BertrandDelacretaz sign off clerezza report view
26 2010-01-12 23:30:52 10058 to previous GavinMcDonald   view
25 2010-01-12 18:50:18 9247 to previous FlorentGuillaume Chemistry report, to be signed off by mentor. view
24 2010-01-12 16:47:59 8108 to previous JeanFredericClere Sign the Traffic Server report view
23 2010-01-12 00:19:46 8087 to previous LeifHedstrom   view
22 2010-01-12 00:18:01 8026 to previous LeifHedstrom   view
21 2010-01-12 00:16:10 8067 to previous LeifHedstrom   view
20 2010-01-12 00:09:45 8061 to previous LeifHedstrom   view
19 2010-01-12 00:04:43 7859 to previous LeifHedstrom   view
18 2010-01-11 21:21:13 5310 to previous francisdb   view
17 2010-01-11 17:10:06 4535 to previous TommasoTeofili   view
16 2010-01-11 17:09:06 4752 to previous TommasoTeofili   view
15 2010-01-11 17:07:51 4532 to previous TommasoTeofili   view
14 2010-01-11 16:17:22 4497 to previous TommasoTeofili   view
13 2010-01-11 16:05:51 4503 to previous TommasoTeofili   view
12 2010-01-11 15:52:08 4498 to previous TommasoTeofili   view
11 2010-01-11 15:23:16 3988 to previous TommasoTeofili   view
10 2010-01-11 15:08:07 3644 to previous TommasoTeofili   view
9 2010-01-11 15:07:31 3660 to previous TommasoTeofili   view
8 2010-01-11 15:05:32 3689 to previous TommasoTeofili   view
7 2010-01-11 13:06:13 3128 to previous TommasoTeofili   view
6 2010-01-11 12:54:33 2956 to previous TommasoTeofili   view
5 2010-01-11 12:03:02 2906 to previous TommasoTeofili   view
4 2010-01-11 09:18:46 2695 to previous BertrandDelacretaz Projecty on monthly reporting schedule were missing view
3 2010-01-11 09:15:28 2361 to previous BertrandDelacretaz Editing the page showed a different content (stub page with templates) than displayed on page - restored content from published version view
2 2009-12-11 15:04:24 888 to previous DavidCrossley add report date view
1 2009-11-27 23:36:52 880 BenDewey   view